User: anonymous   Login
Location: Newark
(48.9320°N, 2.2664°E)
Time: 17:20:03
(UTC+00:00)
Language:

SR - Orbit

View from above orbital plane
View from above orbital plane
View from above satellite
View from above satellite

Ground track
Ground track

The orbit data is extracted from the following two-line orbital elements,

1    46U 60007B   20056.77178203 -.00000042  00000-0  14963-4 0  9995
2    46  66.6923 350.9738 0214493 216.8670 141.7531 14.49275200122777
Epoch (UTC): 25 February 2020 18:31:21
Eccentricity: 0.0214493
inclination: 66.6923°
perigee height: 575 km
apogee height: 880 km
right ascension of ascending node: 350.9738°
argument of perigee: 216.8670°
revolutions per day: 14.49275200
mean anomaly at epoch: 141.7531°
orbit number at epoch: 12277

The dashed part of the orbit path shows where the satellite is in the earth's shadow,  

DLR